Jordan, MT

1:09 AM MST on December 16, 2017 (GMT -0700)
Jordan

Weather History for KJDN - January, 2014

Change the Weather History Date:

Thursday, January 30, 2014

  Actual Average Record
Temperature  
Mean Temperature -1 °F 19 °F  
Max Temperature 13 °F 30 °F 60 °F (1931)
Min Temperature -16 °F 7 °F -46 °F (1950)
Degree Days  
Heating Degree Days 66 46  
Month to date heating degree days 1194 1435  
Since 1 July heating degree days 4781 4885  
Cooling Degree Days 0 0  
Month to date cooling degree days 0 0  
Year to date cooling degree days 0 0  
Moisture  
Dew Point 0 °F    
Average Humidity 79    
Maximum Humidity 92    
Minimum Humidity 66    
Precipitation  
Precipitation 0.00 in 0.01 in 1.40 in (1917)
Month to date precipitation 0.22 0.23  
Year to date precipitation 0.22 0.23  
Snow  
Snow 0.00 in - - ()
Month to date snowfall 0.0  
Since 1 July snowfall 0.0  
Snow Depth 0.00 in    
Sea Level Pressure  
Sea Level Pressure 30.07 in    
Wind  
Wind Speed 9 mph (NW)    
Max Wind Speed 18 mph    
Max Gust Speed 21 mph    
T = Trace of Precipitation, MM = Missing Value Source: NWS Daily Summary

Daily Weather History Graph

Daily Weather History Graph

Search for Another Location

Airport or City:

Trip Planner

Search our weather history database for the weather conditions in past years. The results will help you decide how hot, cold, wet, or windy it might be!

Date:

Astronomy

Jan. 30, 2014 Rise Set
Actual Time 7:35 AM MST 5:06 PM MST
Civil Twilight 7:02 AM MST 5:39 PM MST
Nautical Twilight 6:26 AM MST 6:16 PM MST
Astronomical Twilight 5:50 AM MST 6:52 PM MST
Moon 7:01 AM MST (1/30) 5:26 PM MST (1/30)
Length of Visible Light 10h 36m
Length of Day
9h 30m
Waning Crescent, 0% of the Moon is Illuminated
Jan 30
Waning Crescent
Jan 30
New
Feb 6
First Quarter
Feb 14
Full
Feb 22
Last Quarter

Hourly Weather History & Observations

Time (MST) Temp. Windchill Dew Point Humidity Pressure Visibility Wind Dir Wind Speed Gust Speed Precip Events Conditions
12:48 AM 12.9 °F 5.2 °F 9.0 °F 84% 29.82 in - North 4.6 mph - N/A   Unknown
1:48 AM 10.9 °F -1.8 °F 7.0 °F 84% 29.86 in - NNW 9.2 mph - N/A   Unknown
2:48 AM 10.0 °F -4.5 °F 6.1 °F 84% 29.91 in - NNW 11.5 mph - N/A   Unknown
3:48 AM 10.0 °F -4.5 °F 3.9 °F 76% 29.94 in - North 11.5 mph - N/A   Unknown
4:48 AM 10.0 °F -2.9 °F 5.0 °F 80% 29.96 in - NNW 9.2 mph - N/A   Unknown
5:48 AM 9.0 °F -5.1 °F 3.0 °F 77% 29.99 in - NNW 10.4 mph - N/A   Unknown
6:48 AM 8.1 °F -3.2 °F 3.0 °F 80% 30.03 in - NW 6.9 mph - N/A   Unknown
7:48 AM 8.1 °F -7.0 °F 3.0 °F 80% 30.06 in - NW 11.5 mph - N/A   Unknown
8:48 AM 9.0 °F -3.2 °F 3.9 °F 80% 30.09 in - NW 8.1 mph - N/A   Unknown
9:48 AM 10.0 °F -4.5 °F 3.0 °F 73% 30.11 in - NW 11.5 mph - N/A   Unknown
10:48 AM 10.9 °F -5.9 °F 3.0 °F 70% 30.12 in - NW 16.1 mph - N/A   Unknown
11:48 AM 10.9 °F -5.4 °F 3.9 °F 73% 30.12 in - NW 15.0 mph - N/A   Unknown
12:48 PM 10.9 °F -3.4 °F 3.0 °F 70% 30.12 in - NNW 11.5 mph - N/A   Unknown
1:48 PM 10.0 °F -5.2 °F 1.9 °F 70% 30.11 in - NNW 12.7 mph - N/A   Unknown
2:48 PM 9.0 °F -8.5 °F 1.0 °F 70% 30.12 in - NNW 16.1 mph - N/A   Unknown
3:48 PM 8.1 °F -8.4 °F -0.0 °F 70% 30.13 in - NNW 13.8 mph - N/A   Unknown
4:48 PM 7.0 °F -8.3 °F -0.9 °F 70% 30.14 in - NW 11.5 mph - N/A   Unknown
5:48 PM 5.0 °F -5.6 °F -2.0 °F 73% 30.15 in - NNW 5.8 mph - N/A   Unknown
6:48 PM 3.9 °F -11.3 °F -2.9 °F 73% 30.16 in - NNW 10.4 mph - N/A   Unknown
7:48 PM 3.9 °F -9.4 °F -2.9 °F 73% 30.17 in - NW 8.1 mph - N/A   Unknown
8:48 PM 1.0 °F - -4.0 °F 79% 30.16 in - Calm Calm - N/A   Unknown
9:48 PM -5.1 °F - -9.9 °F 80% 30.15 in - Calm Calm - N/A   Unknown
10:48 PM -9.9 °F -23.4 °F -13.0 °F 86% 30.15 in - WNW 5.8 mph - N/A   Unknown
11:48 PM -14.1 °F -23.9 °F -18.0 °F 82% 30.13 in - West 3.5 mph - N/A   Unknown